Flag for U.S.A. Weather past 2 weeks in Portsmouth, Virginia, U.S.A.

Now
45 °F

Passing clouds.


Feels Like: 45 °F
Forecast: 44 / 69 °F
Wind: No wind

Location: Norfolk Naval Air Station

Current Time: Mar 31, 2015 at 8:06:54 AM

Latest Report: Mar 31, 2015 at 6:59 AM


Visibility: 10 mi

Pressure: 30.01 "Hg

Humidity: 68%

Dew point: 35 °F

Location of PortsmouthLocation

Historic Weather in Portsmouth — Graph

°F

Portsmouth temperature yesterday

Maximum temperature yesterday: 62 °F (at 4:59 PM)
Minimum temperature yesterday: 34 °F (at 8:59 AM)
Average temperature yesterday: 50 °F

Past Weeks' High & Low Weather Summary

 TemperatureHumidityPressure
High81 °F (Mar 17, 12:59 PM)86% (Mar 20, 10:59 AM)30.42 "Hg (Mar 20, 10:59 AM)
Low32 °F (Mar 29, 5:59 AM)18% (Mar 18, 3:59 PM)29.66 "Hg (Mar 27, 3:59 AM)
Average51 °F54%30.09 "Hg
* Reported Mar 16 5:59 AM — Mar 31 5:59 AM, Portsmouth, Weather by CustomWeather, © 2015

Note: Actual official high and low records may vary slightly from our data, if they occured in-between our weather recording intervals... More about our weather records

Advertising

Portsmouth weather history for previous 24 hours

 ConditionsComfort  
Time TempWeatherWind HumidityBarometerVisibility
5:59 AM
Tue, Mar 31
44 °FPassing clouds.No wind68%29.99 "Hg10 mi
4:59 AM47 °FPassing clouds.No wind71%29.99 "Hg10 mi
3:59 AM48 °FPassing clouds.No wind74%29.99 "Hg10 mi
2:59 AM48 °FPassing clouds.No wind74%30.00 "Hg10 mi
1:59 AM49 °FClear.No wind71%30.01 "Hg10 mi
12:59 AM49 °FClear.6 mph77%30.00 "Hg10 mi
11:59 PM
Mon, Mar 30
52 °FPassing clouds.6 mph72%29.99 "Hg10 mi
10:59 PM52 °FClear.8 mph75%29.98 "Hg10 mi
9:56 PM54 °FClear.7 mph72%29.98 "Hg10 mi
8:59 PM56 °FClear.9 mph67%29.96 "Hg10 mi
7:59 PM59 °FPassing clouds.7 mph58%29.92 "Hg10 mi
6:59 PM61 °FPassing clouds.7 mph54%29.90 "Hg10 mi
5:59 PM62 °FPassing clouds.7 mph52%29.89 "Hg10 mi
4:59 PM62 °FScattered clouds.9 mph52%29.90 "Hg10 mi
2:59 PM57 °FPartly sunny.12 mph62%29.93 "Hg10 mi
1:59 PM53 °FBroken clouds.9 mph72%29.95 "Hg10 mi
12:59 PM50 °FMostly cloudy.13 mph71%29.98 "Hg10 mi
11:59 AM48 °FLight rain. More clouds than sun.14 mph71%30.01 "Hg8 mi
10:59 AM48 °FLight rain. Mostly cloudy.12 mph63%30.04 "Hg5 mi
9:59 AM50 °FOvercast.14 mph44%30.05 "Hg10 mi
8:59 AM34 °FLight rain. Overcast.16 mph44%30.05 "Hg7 mi
Weather by CustomWeather, © 2015

See weather overviewHow to use our weather pages